Flag for Germany Weather past 2 weeks in Neuruppin, Brandenburg, Germany

Now
67 °F

Overcast.


Feels Like: 67 °F
Forecast: 64 / 84 °F
Wind: No wind

Location: Neuruppin

Current Time: Aug 2, 2014 at 12:32:16 AM

Latest Report: Aug 2, 2014 at 12:00 AM


Visibility: 6 mi

Pressure: 29.91 "Hg

Humidity: 80%

Dew point: 60 °F

Location of NeuruppinLocation

Historic Weather in Neuruppin — Graph

°F

Neuruppin temperature yesterday

Maximum temperature yesterday: 78 °F (at 4:00 PM)
Minimum temperature yesterday: 57 °F (at 4:00 AM)
Average temperature yesterday: 69 °F

Past Weeks' High & Low Weather Summary

 TemperatureHumidityPressure
High90 °F (Jul 20, 4:00 PM)98% (Aug 1, 6:00 AM)30.17 "Hg (Aug 1, 6:00 AM)
Low57 °F (Aug 1, 4:00 AM)34% (Jul 18, 3:00 PM)29.70 "Hg (Jul 30, 4:00 AM)
Average71 °F71%29.94 "Hg
* Reported Jul 17 10:00 PM — Aug 1 10:00 PM, Neuruppin, Weather by CustomWeather, © 2014

Note: Actual official high and low records may vary slightly from our data, if they occured in-between our weather recording intervals... More about our weather records

Advertising

Neuruppin weather history for previous 24 hours

 ConditionsComfort  
Time TempWeatherWind HumidityBarometerVisibility
10:00 PM
Aug 1
73 °FClear.3 mph63%29.91 "Hg6 mi
9:00 PM75 °FPassing clouds.3 mph56%29.90 "Hg6 mi
8:00 PM76 °FSunny.2 mph53%29.89 "Hg6 mi
7:00 PM77 °FSunny.2 mph55%29.89 "Hg6 mi
6:00 PM78 °FSunny.2 mph45%29.90 "Hg6 mi
5:00 PM78 °FPassing clouds.2 mph47%29.91 "Hg6 mi
4:00 PM78 °FSunny.2 mph48%29.92 "Hg6 mi
3:00 PM76 °FPassing clouds.3 mph51%29.93 "Hg6 mi
2:00 PM76 °FScattered clouds.3 mph48%29.93 "Hg6 mi
1:00 PM75 °FPassing clouds.2 mph53%29.95 "Hg6 mi
12:00 PM75 °FSunny.3 mph53%29.96 "Hg6 mi
11:00 AM74 °FSunny.3 mph58%29.97 "Hg6 mi
10:00 AM71 °FSunny.1 mph63%29.97 "Hg6 mi
9:00 AM67 °FSunny.1 mph75%29.97 "Hg6 mi
8:00 AM63 °FSunny.1 mph90%29.97 "Hg6 mi
7:00 AM59 °FSunny.No wind96%29.97 "Hg3 mi
6:00 AM57 °FSunny.1 mph98%29.97 "Hg6 mi
4:00 AM57 °FClear.No wind95%29.98 "Hg6 mi
3:00 AM58 °FClear.No wind95%29.98 "Hg6 mi
2:00 AM59 °FClear.No wind94%29.98 "Hg2 mi
1:00 AM60 °FClear.No wind90%29.98 "Hg6 mi
12:00 AM60 °FClear.No wind86%29.97 "Hg6 mi
Weather by CustomWeather, © 2014

See weather overviewHow to use our weather pages